Location: Dehesa de la Cepeda
(40.6574°N, 4.3013°W)
Time: 10:04:53
(UTC+00:00)

Transit 2A Rocket - Pass Details

Date: 07 August 2021
Orbit: 586 x 917 km, 66.7° (Epoch: 24 September)

Event Time Altitude Azimuth Distance (km) Brightness Sun altitude
Rises 21:38:06 0° 330° (NNW) 3,319 9.7 -21.5°
Reaches altitude 10° 21:40:28 10° 331° (NNW) 2,431 8.7 -21.8°
Maximum altitude 21:46:09 85° 62° (ENE) 879 5.2 -22.5°
Enters shadow 21:47:49 50° 145° (SE) 1,112 5.4 -22.8°
Drops below altitude 10° 21:52:11 10° 150° (SSE) 2,576 - -23.3°
Sets 21:54:45 0° 151° (SSE) 3,530 - -23.6°
